Meteo orario Abdaevo

Oggi, 20 Giugno, Domenica

Tempo Temperatura Precipitazioni Vento Pressione Umidità
00:00 +19°C° 0 mm 3 m/s 748 mm Hg 86%
01:00 +18°C° 0 mm 3 m/s 749 mm Hg 89%
02:00 +18°C° 0 mm 3 m/s 749 mm Hg 91%
03:00 +17°C° 0 mm 2 m/s 749 mm Hg 93%
04:00 +18°C° 0 mm 2 m/s 749 mm Hg 87%
05:00 +20°C° 0 mm 2 m/s 749 mm Hg 81%
06:00 +21°C° 0 mm 3 m/s 749 mm Hg 75%
07:00 +24°C° 0 mm 2 m/s 749 mm Hg 69%
08:00 +26°C° 0 mm 2 m/s 749 mm Hg 62%
09:00 +27°C° 0 mm 2 m/s 750 mm Hg 57%
10:00 +28°C° 0 mm 2 m/s 750 mm Hg 54%
11:00 +29°C° 0 mm 2 m/s 750 mm Hg 51%
12:00 +30°C° 0 mm 2 m/s 750 mm Hg 48%
13:00 +30°C° 0 mm 2 m/s 750 mm Hg 48%
14:00 +31°C° 0 mm 2 m/s 750 mm Hg 48%
15:00 +31°C° 0 mm 2 m/s 750 mm Hg 47%
16:00 +30°C° 0 mm 2 m/s 749 mm Hg 53%
17:00 +29°C° 0 mm 2 m/s 749 mm Hg 60%
18:00 +28°C° 0 mm 1 m/s 749 mm Hg 66%
19:00 +26°C° 0.1 mm 2 m/s 749 mm Hg 71%
20:00 +25°C° 0.1 mm 2 m/s 750 mm Hg 77%
21:00 +23°C° 0.1 mm 2 m/s 750 mm Hg 83%
22:00 +23°C° 0 mm 2 m/s 750 mm Hg 83%
23:00 +21°C° 0 mm 2 m/s 750 mm Hg 83%

Domani, 21 Giugno, Lunedi

Tempo Temperatura Precipitazioni Vento Pressione Umidità
00:00 +21°C° 0 mm 2 m/s 750 mm Hg 82%
01:00 +21°C° 0 mm 2 m/s 750 mm Hg 85%
02:00 +20°C° 0 mm 2 m/s 750 mm Hg 88%
03:00 +20°C° 0 mm 2 m/s 750 mm Hg 91%
04:00 +21°C° 0 mm 2 m/s 750 mm Hg 86%
05:00 +23°C° 0 mm 2 m/s 750 mm Hg 82%
06:00 +24°C° 0 mm 2 m/s 750 mm Hg 78%
07:00 +25°C° 0 mm 3 m/s 750 mm Hg 70%
08:00 +27°C° 0 mm 3 m/s 750 mm Hg 63%
09:00 +29°C° 0 mm 3 m/s 750 mm Hg 55%
10:00 +30°C° 0 mm 3 m/s 750 mm Hg 51%
11:00 +31°C° 0 mm 3 m/s 750 mm Hg 47%
12:00 +32°C° 0 mm 4 m/s 750 mm Hg 42%
13:00 +33°C° 0 mm 4 m/s 750 mm Hg 42%
14:00 +33°C° 0 mm 4 m/s 749 mm Hg 41%
15:00 +33°C° 0 mm 3 m/s 749 mm Hg 41%
16:00 +31°C° 0 mm 3 m/s 749 mm Hg 47%
17:00 +30°C° 0 mm 3 m/s 749 mm Hg 54%
18:00 +29°C° 0 mm 2 m/s 749 mm Hg 61%
19:00 +27°C° 0 mm 2 m/s 749 mm Hg 69%
20:00 +25°C° 0 mm 2 m/s 749 mm Hg 76%
21:00 +24°C° 0 mm 2 m/s 749 mm Hg 84%
22:00 +23°C° 0 mm 2 m/s 749 mm Hg 87%
23:00 +21°C° 0 mm 2 m/s 749 mm Hg 90%

Dopodomani, 22 Giugno, Martedi

Tempo Temperatura Precipitazioni Vento Pressione Umidità
00:00 +21°C° 0 mm 2 m/s 749 mm Hg 93%
01:00 +20°C° 0 mm 2 m/s 749 mm Hg 91%
02:00 +20°C° 0 mm 2 m/s 750 mm Hg 89%
03:00 +20°C° 0 mm 2 m/s 750 mm Hg 87%
04:00 +21°C° 0 mm 2 m/s 750 mm Hg 82%
05:00 +23°C° 0 mm 2 m/s 750 mm Hg 77%
06:00 +24°C° 0 mm 2 m/s 750 mm Hg 72%
07:00 +26°C° 0 mm 2 m/s 750 mm Hg 66%
08:00 +28°C° 0 mm 2 m/s 750 mm Hg 59%
09:00 +30°C° 0 mm 3 m/s 750 mm Hg 53%
10:00 +31°C° 0 mm 3 m/s 750 mm Hg 49%
11:00 +33°C° 0 mm 3 m/s 750 mm Hg 45%
12:00 +34°C° 0 mm 3 m/s 750 mm Hg 41%
13:00 +34°C° 0 mm 3 m/s 750 mm Hg 41%
14:00 +34°C° 0 mm 3 m/s 750 mm Hg 41%
15:00 +34°C° 0 mm 3 m/s 750 mm Hg 41%
16:00 +33°C° 0 mm 3 m/s 750 mm Hg 47%
17:00 +31°C° 0 mm 2 m/s 749 mm Hg 54%
18:00 +30°C° 0 mm 2 m/s 749 mm Hg 60%
19:00 +28°C° 0 mm 2 m/s 749 mm Hg 66%
20:00 +26°C° 0 mm 2 m/s 749 mm Hg 72%
21:00 +24°C° 0 mm 1 m/s 749 mm Hg 79%
22:00 +23°C° 0 mm 2 m/s 749 mm Hg 81%
23:00 +21°C° 0 mm 2 m/s 749 mm Hg 84%

23 Giugno, Mercoledi

Tempo Temperatura Precipitazioni Vento Pressione Umidità
00:00 +21°C° 0 mm 2 m/s 749 mm Hg 86%
01:00 +20°C° 0 mm 2 m/s 749 mm Hg 85%
02:00 +20°C° 0 mm 2 m/s 749 mm Hg 84%
03:00 +20°C° 0 mm 2 m/s 749 mm Hg 83%
04:00 +21°C° 0 mm 2 m/s 749 mm Hg 79%
05:00 +23°C° 0 mm 2 m/s 750 mm Hg 75%
06:00 +24°C° 0 mm 2 m/s 750 mm Hg 71%
07:00 +26°C° 0 mm 2 m/s 750 mm Hg 65%
08:00 +28°C° 0 mm 3 m/s 750 mm Hg 58%
09:00 +30°C° 0 mm 3 m/s 750 mm Hg 51%
10:00 +31°C° 0 mm 3 m/s 750 mm Hg 47%
11:00 +33°C° 0 mm 3 m/s 750 mm Hg 44%
12:00 +34°C° 0 mm 3 m/s 750 mm Hg 40%
13:00 +33°C° 0 mm 3 m/s 749 mm Hg 42%
14:00 +33°C° 0 mm 3 m/s 749 mm Hg 43%
15:00 +33°C° 0 mm 3 m/s 749 mm Hg 45%
16:00 +31°C° 0 mm 2 m/s 749 mm Hg 50%
17:00 +31°C° 0 mm 2 m/s 749 mm Hg 55%
18:00 +30°C° 0 mm 1 m/s 749 mm Hg 60%
19:00 +28°C° 0 mm 1 m/s 749 mm Hg 66%
20:00 +26°C° 0 mm 1 m/s 748 mm Hg 71%
21:00 +24°C° 0 mm 1 m/s 748 mm Hg 77%
22:00 +24°C° 0 mm 1 m/s 748 mm Hg 79%
23:00 +23°C° 0 mm 1 m/s 749 mm Hg 81%

24 Giugno, Giovedi

Tempo Temperatura Precipitazioni Vento Pressione Umidità
00:00 +23°C° 0 mm 1 m/s 749 mm Hg 84%
01:00 +22°C° 0 mm 1 m/s 748 mm Hg 85%
02:00 +22°C° 0 mm 1 m/s 748 mm Hg 86%
03:00 +21°C° 0 mm 2 m/s 748 mm Hg 86%
04:00 +23°C° 0 mm 2 m/s 748 mm Hg 81%
05:00 +24°C° 0 mm 2 m/s 748 mm Hg 76%
06:00 +25°C° 0 mm 2 m/s 748 mm Hg 70%
07:00 +27°C° 0 mm 2 m/s 748 mm Hg 65%
08:00 +29°C° 0 mm 3 m/s 748 mm Hg 59%
09:00 +31°C° 0 mm 3 m/s 748 mm Hg 53%
10:00 +33°C° 0 mm 3 m/s 748 mm Hg 49%
11:00 +34°C° 0 mm 3 m/s 748 mm Hg 45%
12:00 +35°C° 0 mm 4 m/s 747 mm Hg 41%
13:00 +35°C° 0 mm 4 m/s 747 mm Hg 40%
14:00 +35°C° 0 mm 4 m/s 747 mm Hg 39%
15:00 +35°C° 0 mm 4 m/s 747 mm Hg 38%
16:00 +34°C° 0 mm 3 m/s 747 mm Hg 44%
17:00 +33°C° 0 mm 3 m/s 746 mm Hg 49%
18:00 +32°C° 0 mm 2 m/s 746 mm Hg 55%
19:00 +30°C° 0 mm 2 m/s 746 mm Hg 60%
20:00 +28°C° 0 mm 2 m/s 745 mm Hg 66%
21:00 +26°C° 0 mm 2 m/s 745 mm Hg 72%
22:00 +25°C° 0 mm 2 m/s 745 mm Hg 74%
23:00 +25°C° 0 mm 2 m/s 745 mm Hg 76%

25 Giugno, Venerdi

Tempo Temperatura Precipitazioni Vento Pressione Umidità
00:00 +24°C° 0 mm 2 m/s 745 mm Hg 78%
01:00 +23°C° 0 mm 2 m/s 745 mm Hg 79%
02:00 +23°C° 0 mm 2 m/s 745 mm Hg 79%
03:00 +21°C° 0 mm 2 m/s 745 mm Hg 79%
04:00 +23°C° 0 mm 2 m/s 745 mm Hg 77%
05:00 +24°C° 0 mm 2 m/s 745 mm Hg 75%
06:00 +25°C° 0 mm 2 m/s 745 mm Hg 73%
07:00 +27°C° 0 mm 3 m/s 745 mm Hg 66%
08:00 +29°C° 0 mm 3 m/s 745 mm Hg 59%
09:00 +31°C° 0 mm 3 m/s 745 mm Hg 52%
10:00 +33°C° 0 mm 4 m/s 745 mm Hg 48%
11:00 +34°C° 0 mm 4 m/s 745 mm Hg 45%
12:00 +35°C° 0 mm 4 m/s 745 mm Hg 42%
13:00 +35°C° 0 mm 4 m/s 744 mm Hg 42%
14:00 +35°C° 0 mm 4 m/s 744 mm Hg 41%
15:00 +35°C° 0 mm 4 m/s 744 mm Hg 41%
16:00 +34°C° 0 mm 3 m/s 744 mm Hg 46%
17:00 +34°C° 0 mm 2 m/s 744 mm Hg 51%
18:00 +32°C° 0 mm 1 m/s 744 mm Hg 55%
19:00 +30°C° 0 mm 1 m/s 743 mm Hg 63%
20:00 +28°C° 0 mm 1 m/s 743 mm Hg 70%
21:00 +25°C° 0 mm 1 m/s 743 mm Hg 78%
22:00 +23°C° 0 mm 0 m/s 743 mm Hg 78%
23:00 +23°C° 0 mm 0 m/s 743 mm Hg 79%
Mostrare altro

Abbiamo bisogno del tuo consenso

Meteoprog e i nostri fornitori di servizi possono memorizzare e accedere a dati personali come cookie, identificatori di dispositivi o altre tecnologie simili sul tuo dispositivo e possono elaborare tali dati per personalizzare i contenuti e gli annunci, nonché fornire funzionalità dei social media e analizzarne il traffico.

  • Archiviare e/o accedere alle informazioni sul tuo dispositivo

    Cookie, identificatori di dispositivi o altre informazioni possono essere memorizzati o resi accessibili sul tuo dispositivo per le finalità sopra indicate.

  • Annunci e contenuti personalizzati, misurazione di annunci e contenuti, approfondimenti sul pubblico e sviluppo di prodotti

    Gli annunci e i contenuti possono essere personalizzati in base a un profilo. È possibile aggiungere più dati per personalizzare meglio annunci e contenuti. È possibile misurare il rendimento degli annunci e dei contenuti. È possibile ricavare informazioni sul pubblico che ha visto gli annunci e i contenuti. Tali dati possono essere utilizzati per sviluppare o migliorare l'esperienza, i sistemi e il software dell'utente.

Cliccando su “Accetto”, acconsenti all'uso di cookie, identificatori di dispositivo, web beacon o altre tecnologie simili. Puoi modificare le impostazioni nel browser del tuo dispositivo.

Per determinati scopi, è possibile fare affidamento su interessi legali, piuttosto che sul consenso. Puoi approfondire questo argomento consultando la nostra Informativa sulla privacy e sui cookie.